Regional Weather Roundup
Issued by NWS Sioux Falls, SD

Home | Current Version | Previous Version | Graphics & Text | Print | Product List | Glossary On
Versions: 1 2 3 4 5 6 7 8 9 10 11 12 13 14 15 16 17 18 19 20 21 22 23 24 25 26 27 28 29 30 31 32 33 34 35 36 37 38 39 40 41 42 43 44 45 46 47 48 49 50
000
ASUS43 KFSD 290602
RWRFSD

WEATHER ROUNDUP FOR SE SOUTH DAKOTA/SW MINNESOTA/NW IOWA
NATIONAL WEATHER SERVICE SIOUX FALLS SD
100 AM CDT THU SEP 29 2016

NOTE: "FAIR" INDICATES FEW OR NO CLOUDS BELOW 12,000 FEET WITH NO
SIGNIFICANT WEATHER AND OR OBSTRUCTIONS TO VISIBILITY.


SDZ038>040-050-052>070-290700-
SOUTHEAST SOUTH DAKOTA

CITY           SKY/WX    TMP DP  RH WIND       PRES   REMARKS
CHAMBERLAIN    CLEAR     50  46  86 SE8       30.38S
6HR MIN TEMP:  44; 6HR MAX TEMP:  64;

HURON          CLOUDY    45  43  93 CALM      30.40R
6HR MIN TEMP:  44; 6HR MAX TEMP:  63;

MADISON        FAIR      43  43 100 NE8       30.40S
MITCHELL       CLOUDY    45  42  89 CALM      30.40R
6HR MIN TEMP:  43; 6HR MAX TEMP:  63;

SIOUX FALLS    CLEAR     45  43  93 CALM      30.40R
6HR MIN TEMP:  45; 6HR MAX TEMP:  58;

WINNER         FAIR      47  42  83 S7        30.37S
YANKTON        CLEAR     46  43  87 CALM      30.37S
$$

MNZ071-072-080-081-089-090-097-098-290700-
SOUTHWEST MINNESOTA

CITY           SKY/WX    TMP DP  RH WIND       PRES   REMARKS
FAIRMONT       CLEAR     47  45  93 N6        30.37R
JACKSON        CLEAR     46  43  87 CALM      30.38R
LUVERNE        CLEAR     43  41  93 CALM      30.39S
MARSHALL       CLEAR     43  41  93 CALM      30.40S
6HR MIN TEMP:  43; 6HR MAX TEMP:  60;

MONTEVIDEO     CLEAR     45  43  93 CALM      30.42S
PIPESTONE      CLEAR     46  45  93 CALM      30.39S
REDWOOD FALLS  CLEAR     51  46  83 N5        30.39R
TRACY          CLEAR     46  44  93 CALM      30.40R
WINDOM         CLEAR     45  43  93 N5        30.39R
WORTHINGTON    CLEAR     46  44  93 N6        30.39S
$$

IAZ001>003-012>014-020>022-031-032-NEZ013-014-SDZ071-290700-
NORTHWEST IOWA

CITY           SKY/WX    TMP DP  RH WIND       PRES   REMARKS
CHEROKEE       CLEAR     46  46 100 N5        30.37S
DENISON        CLEAR     46  45  93 CALM      30.33S FOG
ESTHERVILLE    CLEAR     45  45 100 N6        30.36S
LE MARS        CLEAR     45  43  93 CALM      30.38S
ORANGE CITY    CLEAR     50  45  81 CALM      30.37S
SHELDON        CLEAR     43  43 100 NE3       30.36S
SIOUX CITY     CLEAR     47  45  93 N5        30.38R
6HR MIN TEMP:  46; 6HR MAX TEMP:  61;

SPENCER        CLEAR     49  46  90 N7        30.37S
6HR MIN TEMP:  48; 6HR MAX TEMP:  60;

STORM LAKE     CLEAR     50  48  93 NE8       30.36S
$$

ABBREVIATIONS USED IN REMARKS
   TC - TEMPERATURE IN CELSIUS
  WCI - WIND CHILL INDEX
   HX - HEAT INDEX
  VSB - VISIBILITY




USA.gov is the U.S. government's official web portal to all federal, state and local government web resources and services.